Time,TemperatureF,DewpointF,PressureIn,WindDirection,WindDirectionDegrees,WindSpeedMPH,WindSpeedGustMPH,Humidity,HourlyPrecipIn,Conditions,Clouds,dailyrainin,SoftwareType,DateUTC
2013-01-02 00:10:00,18.3,9.0,29.91,NW,307,1.0,2.0,66,0.00,,,0.00,weatherlink.com 1.10,2013-01-02 05:10:00,
2013-01-02 00:25:00,17.9,8.0,29.91,East,98,0.0,2.0,65,0.00,,,0.00,weatherlink.com 1.10,2013-01-02 05:25:00,
2013-01-02 00:40:00,17.5,8.0,29.92,West,281,0.0,0.0,66,0.00,,,0.00,weatherlink.com 1.10,2013-01-02 05:40:00,
2013-01-02 00:55:00,17.5,7.0,29.91,West,271,0.0,3.0,64,0.00,,,0.00,weatherlink.com 1.10,2013-01-02 05:55:00,
2013-01-02 01:10:00,17.0,8.0,29.92,NNW,340,1.0,1.0,67,0.00,,,0.00,weatherlink.com 1.10,2013-01-02 06:10:00,
2013-01-02 01:25:00,16.3,7.0,29.92,NNW,340,0.0,0.0,66,0.00,,,0.00,weatherlink.com 1.10,2013-01-02 06:25:00,
2013-01-02 01:40:00,15.3,7.0,29.92,NNW,340,0.0,0.0,69,0.00,,,0.00,weatherlink.com 1.10,2013-01-02 06:40:00,
2013-01-02 01:55:00,14.6,6.0,29.94,NNW,340,0.0,0.0,70,0.00,,,0.00,weatherlink.com 1.10,2013-01-02 06:55:00,
2013-01-02 02:10:00,13.6,6.0,29.95,NNW,340,0.0,1.0,70,0.00,,,0.00,weatherlink.com 1.10,2013-01-02 07:10:00,
2013-01-02 02:25:00,13.2,6.0,29.94,NNW,340,0.0,0.0,73,0.00,,,0.00,weatherlink.com 1.10,2013-01-02 07:25:00,
2013-01-02 02:40:00,12.8,7.0,29.95,NNW,340,0.0,1.0,76,0.00,,,0.00,weatherlink.com 1.10,2013-01-02 07:40:00,
2013-01-02 02:56:00,12.0,6.0,29.95,NNW,340,0.0,1.0,76,0.00,,,0.00,weatherlink.com 1.10,2013-01-02 07:56:00,
2013-01-02 03:10:00,11.6,6.0,29.95,NNW,340,0.0,1.0,77,0.00,,,0.00,weatherlink.com 1.10,2013-01-02 08:10:00,
2013-01-02 03:25:00,11.3,5.0,29.94,NNW,340,0.0,1.0,77,0.00,,,0.00,weatherlink.com 1.10,2013-01-02 08:25:00,
2013-01-02 03:40:00,11.0,5.0,29.94,West,278,0.0,0.0,78,0.00,,,0.00,weatherlink.com 1.10,2013-01-02 08:40:00,
2013-01-02 03:56:00,10.5,5.0,29.94,West,278,0.0,1.0,77,0.00,,,0.00,weatherlink.com 1.10,2013-01-02 08:56:00,
2013-01-02 04:11:00,10.2,5.0,29.93,West,278,0.0,1.0,78,0.00,,,0.00,weatherlink.com 1.10,2013-01-02 09:11:00,
2013-01-02 04:26:00,9.9,4.0,29.93,West,278,0.0,0.0,78,0.00,,,0.00,weatherlink.com 1.10,2013-01-02 09:26:00,
2013-01-02 04:41:00,9.8,4.0,29.92,West,278,0.0,1.0,78,0.00,,,0.00,weatherlink.com 1.10,2013-01-02 09:41:00,
2013-01-02 04:56:00,10.5,5.0,29.92,WSW,249,0.0,1.0,77,0.00,,,0.00,weatherlink.com 1.10,2013-01-02 09:56:00,
2013-01-02 05:11:00,11.6,6.0,29.92,WSW,245,0.0,1.0,77,0.00,,,0.00,weatherlink.com 1.10,2013-01-02 10:11:00,
2013-01-02 05:26:00,12.4,6.0,29.93,WSW,246,0.0,1.0,76,0.00,,,0.00,weatherlink.com 1.10,2013-01-02 10:26:00,
2013-01-02 05:41:00,12.8,7.0,29.93,SW,214,0.0,1.0,76,0.00,,,0.00,weatherlink.com 1.10,2013-01-02 10:41:00,
2013-01-02 05:58:00,12.5,6.0,29.93,SW,230,0.0,1.0,76,0.00,,,0.00,weatherlink.com 1.10,2013-01-02 10:58:00,
2013-01-02 06:11:00,12.3,6.0,29.93,SW,229,0.0,1.0,77,0.00,,,0.00,weatherlink.com 1.10,2013-01-02 11:11:00,
2013-01-02 06:26:00,11.9,6.0,29.93,SW,229,0.0,1.0,78,0.00,,,0.00,weatherlink.com 1.10,2013-01-02 11:26:00,
2013-01-02 06:41:00,12.1,7.0,29.93,WSW,252,0.0,1.0,79,0.00,,,0.00,weatherlink.com 1.10,2013-01-02 11:41:00,
2013-01-02 06:56:00,12.5,7.0,29.92,SW,232,0.0,1.0,78,0.00,,,0.00,weatherlink.com 1.10,2013-01-02 11:56:00,
2013-01-02 07:26:00,12.2,7.0,29.92,WSW,239,0.0,1.0,79,0.00,,,0.00,weatherlink.com 1.10,2013-01-02 12:26:00,
2013-01-02 07:41:00,12.9,8.0,29.92,SW,222,1.0,1.0,80,0.00,,,0.00,weatherlink.com 1.10,2013-01-02 12:41:00,
2013-01-02 07:56:00,13.6,8.0,29.92,WSW,245,0.0,1.0,79,0.00,,,0.00,weatherlink.com 1.10,2013-01-02 12:56:00,
2013-01-02 08:11:00,14.3,9.0,29.93,WSW,239,1.0,1.0,78,0.00,,,0.00,weatherlink.com 1.10,2013-01-02 13:11:00,
2013-01-02 08:26:00,15.3,9.0,29.93,West,265,0.0,2.0,76,0.00,,,0.00,weatherlink.com 1.10,2013-01-02 13:26:00,
2013-01-02 08:41:00,16.3,10.0,29.92,WSW,242,1.0,2.0,75,0.00,,,0.00,weatherlink.com 1.10,2013-01-02 13:41:00,
2013-01-02 08:56:00,17.6,10.0,29.92,WSW,252,0.0,1.0,72,0.00,,,0.00,weatherlink.com 1.10,2013-01-02 13:56:00,
2013-01-02 09:11:00,18.6,10.0,29.93,WNW,297,1.0,3.0,70,0.00,,,0.00,weatherlink.com 1.10,2013-01-02 14:11:00,
2013-01-02 09:26:00,19.6,10.0,29.93,NNW,328,0.0,4.0,67,0.00,,,0.00,weatherlink.com 1.10,2013-01-02 14:26:00,
2013-01-02 09:41:00,20.4,11.0,29.93,West,273,0.0,4.0,67,0.00,,,0.00,weatherlink.com 1.10,2013-01-02 14:41:00,
2013-01-02 09:56:00,21.2,11.0,29.93,WSW,254,0.0,3.0,66,0.00,,,0.00,weatherlink.com 1.10,2013-01-02 14:56:00,
2013-01-02 10:11:00,22.1,12.0,29.94,NNW,335,2.0,4.0,65,0.00,,,0.00,weatherlink.com 1.10,2013-01-02 15:11:00,
2013-01-02 10:26:00,22.7,12.0,29.94,NW,304,1.0,4.0,64,0.00,,,0.00,weatherlink.com 1.10,2013-01-02 15:26:00,
2013-01-02 10:41:00,23.4,13.0,29.94,NW,319,1.0,3.0,64,0.00,,,0.00,weatherlink.com 1.10,2013-01-02 15:41:00,
2013-01-02 10:56:00,24.1,14.0,29.93,ESE,115,1.0,3.0,66,0.00,,,0.00,weatherlink.com 1.10,2013-01-02 15:56:00,
2013-01-02 11:11:00,25.4,15.0,29.92,West,270,2.0,4.0,65,0.00,,,0.00,weatherlink.com 1.10,2013-01-02 16:11:00,
2013-01-02 11:26:00,26.0,14.0,29.91,West,271,1.0,6.0,61,0.00,,,0.00,weatherlink.com 1.10,2013-01-02 16:26:00,
2013-01-02 11:41:00,26.5,16.0,29.91,West,266,0.0,3.0,64,0.00,,,0.00,weatherlink.com 1.10,2013-01-02 16:41:00,
2013-01-02 11:56:00,26.9,15.0,29.90,WNW,284,1.0,4.0,62,0.00,,,0.00,weatherlink.com 1.10,2013-01-02 16:56:00,
2013-01-02 12:11:00,27.9,16.0,29.89,NW,305,2.0,5.0,61,0.00,,,0.00,weatherlink.com 1.10,2013-01-02 17:11:00,
2013-01-02 12:26:00,28.7,17.0,29.89,North,359,2.0,3.0,62,0.00,,,0.00,weatherlink.com 1.10,2013-01-02 17:26:00,
2013-01-02 12:41:00,28.6,16.0,29.89,West,277,3.0,4.0,59,0.00,,,0.00,weatherlink.com 1.10,2013-01-02 17:41:00,
2013-01-02 12:56:00,28.2,15.0,29.90,West,276,0.0,6.0,59,0.00,,,0.00,weatherlink.com 1.10,2013-01-02 17:56:00,
2013-01-02 13:11:00,28.6,16.0,29.89,East,85,1.0,4.0,59,0.00,,,0.00,weatherlink.com 1.10,2013-01-02 18:11:00,
2013-01-02 13:42:00,28.7,17.0,29.90,West,281,0.0,4.0,61,0.00,,,0.00,weatherlink.com 1.10,2013-01-02 18:42:00,
2013-01-02 13:57:00,28.9,16.0,29.90,NNW,335,0.0,6.0,60,0.00,,,0.00,weatherlink.com 1.10,2013-01-02 18:57:00,
2013-01-02 14:12:00,27.9,16.0,29.91,WSW,250,1.0,4.0,61,0.00,,,0.00,weatherlink.com 1.10,2013-01-02 19:12:00,
2013-01-02 14:27:00,27.4,16.0,29.91,West,281,3.0,4.0,62,0.00,,,0.00,weatherlink.com 1.10,2013-01-02 19:27:00,
2013-01-02 14:42:00,27.2,16.0,29.92,West,265,1.0,6.0,63,0.00,,,0.00,weatherlink.com 1.10,2013-01-02 19:42:00,
2013-01-02 14:57:00,27.0,14.0,29.93,NW,313,1.0,4.0,59,0.00,,,0.00,weatherlink.com 1.10,2013-01-02 19:57:00,
2013-01-02 15:12:00,27.0,14.0,29.93,NNW,343,4.0,6.0,59,0.00,,,0.00,weatherlink.com 1.10,2013-01-02 20:12:00,
2013-01-02 15:27:00,26.7,14.0,29.95,West,280,2.0,4.0,58,0.00,,,0.00,weatherlink.com 1.10,2013-01-02 20:27:00,
2013-01-02 15:42:00,26.1,13.0,29.95,SE,128,2.0,5.0,58,0.00,,,0.00,weatherlink.com 1.10,2013-01-02 20:42:00,
2013-01-02 15:57:00,25.6,13.0,29.96,West,280,0.0,4.0,60,0.00,,,0.00,weatherlink.com 1.10,2013-01-02 20:57:00,
2013-01-02 16:12:00,24.8,13.0,29.97,WSW,256,0.0,3.0,61,0.00,,,0.00,weatherlink.com 1.10,2013-01-02 21:12:00,
2013-01-02 16:27:00,24.4,14.0,29.98,NNW,328,3.0,5.0,64,0.00,,,0.00,weatherlink.com 1.10,2013-01-02 21:27:00,
2013-01-02 16:42:00,24.0,13.0,29.98,WSW,243,2.0,4.0,63,0.00,,,0.00,weatherlink.com 1.10,2013-01-02 21:42:00,
2013-01-02 16:57:00,24.0,13.0,29.99,North,358,2.0,3.0,62,0.00,,,0.00,weatherlink.com 1.10,2013-01-02 21:57:00,
2013-01-02 17:12:00,24.0,12.0,30.00,SSW,207,0.0,4.0,61,0.00,,,0.00,weatherlink.com 1.10,2013-01-02 22:12:00,
2013-01-02 17:27:00,23.3,12.0,30.00,NW,322,3.0,5.0,62,0.00,,,0.00,weatherlink.com 1.10,2013-01-02 22:27:00,
2013-01-02 17:42:00,22.7,12.0,30.00,WSW,255,1.0,2.0,64,0.00,,,0.00,weatherlink.com 1.10,2013-01-02 22:42:00,
2013-01-02 17:57:00,22.4,11.0,30.01,WNW,283,0.0,2.0,63,0.00,,,0.00,weatherlink.com 1.10,2013-01-02 22:57:00,
2013-01-02 18:12:00,21.9,12.0,30.01,NW,319,0.0,1.0,65,0.00,,,0.00,weatherlink.com 1.10,2013-01-02 23:12:00,
2013-01-02 18:27:00,21.1,11.0,30.02,NNW,330,0.0,2.0,66,0.00,,,0.00,weatherlink.com 1.10,2013-01-02 23:27:00,
2013-01-02 18:42:00,20.8,11.0,30.02,NW,326,0.0,1.0,66,0.00,,,0.00,weatherlink.com 1.10,2013-01-02 23:42:00,
2013-01-02 18:57:00,19.8,11.0,30.03,NW,326,0.0,1.0,68,0.00,,,0.00,weatherlink.com 1.10,2013-01-02 23:57:00,
2013-01-02 19:12:00,19.4,11.0,30.04,NW,318,0.0,2.0,70,0.00,,,0.00,weatherlink.com 1.10,2013-01-03 00:12:00,
2013-01-02 19:27:00,19.0,11.0,30.04,NW,318,0.0,1.0,72,0.00,,,0.00,weatherlink.com 1.10,2013-01-03 00:27:00,
2013-01-02 19:42:00,18.9,11.0,30.04,SSW,197,0.0,1.0,71,0.00,,,0.00,weatherlink.com 1.10,2013-01-03 00:42:00,
2013-01-02 20:12:00,17.4,10.0,30.04,SSW,208,0.0,1.0,73,0.00,,,0.00,weatherlink.com 1.10,2013-01-03 01:12:00,
2013-01-02 20:27:00,17.3,10.0,30.05,NNE,23,1.0,2.0,73,0.00,,,0.00,weatherlink.com 1.10,2013-01-03 01:27:00,
2013-01-02 20:42:00,17.1,10.0,30.05,WNW,286,0.0,1.0,72,0.00,,,0.00,weatherlink.com 1.10,2013-01-03 01:42:00,
2013-01-02 20:57:00,16.9,9.0,30.05,East,90,0.0,3.0,71,0.00,,,0.00,weatherlink.com 1.10,2013-01-03 01:57:00,
2013-01-02 21:12:00,16.8,8.0,30.06,West,273,3.0,6.0,69,0.00,,,0.00,weatherlink.com 1.10,2013-01-03 02:12:00,
2013-01-02 21:27:00,16.4,8.0,30.06,NNE,23,0.0,3.0,68,0.00,,,0.00,weatherlink.com 1.10,2013-01-03 02:27:00,
2013-01-02 21:42:00,16.0,7.0,30.06,WNW,300,0.0,3.0,67,0.00,,,0.00,weatherlink.com 1.10,2013-01-03 02:42:00,
2013-01-02 21:57:00,15.5,6.0,30.07,SW,217,2.0,4.0,66,0.00,,,0.00,weatherlink.com 1.10,2013-01-03 02:57:00,
2013-01-02 22:12:00,15.2,5.0,30.08,NNW,335,3.0,5.0,64,0.00,,,0.00,weatherlink.com 1.10,2013-01-03 03:12:00,
2013-01-02 22:27:00,14.7,4.0,30.08,West,270,1.0,3.0,63,0.00,,,0.00,weatherlink.com 1.10,2013-01-03 03:27:00,
2013-01-02 22:57:00,13.8,4.0,30.08,WNW,302,1.0,2.0,65,0.00,,,0.00,weatherlink.com 1.10,2013-01-03 03:57:00,
2013-01-02 23:12:00,13.7,3.0,30.08,WNW,301,1.0,5.0,62,0.00,,,0.00,weatherlink.com 1.10,2013-01-03 04:12:00,
2013-01-02 23:27:00,13.3,3.0,30.09,North,1,2.0,3.0,63,0.00,,,0.00,weatherlink.com 1.10,2013-01-03 04:27:00,
2013-01-02 23:42:00,13.0,3.0,30.09,SW,225,1.0,2.0,64,0.00,,,0.00,weatherlink.com 1.10,2013-01-03 04:42:00,
2013-01-02 23:57:00,12.5,2.0,30.09,North,349,0.0,2.0,64,0.00,,,0.00,weatherlink.com 1.10,2013-01-03 04:57:00,